Time,TemperatureF,DewpointF,PressureIn,WindDirection,WindDirectionDegrees,WindSpeedMPH,WindSpeedGustMPH,Humidity,HourlyPrecipIn,Conditions,Clouds,dailyrainin,SoftwareType,DateUTC
2017-05-23 00:02:00,46.4,30.2,30.10,SSW,207,0.0,0.0,53,0.00,,,0.30,Wunderground v.1.15,2017-05-23 04:02:00,
2017-05-23 00:08:00,46.4,30.2,30.10,SSW,207,0.0,2.0,53,0.00,,,0.00,Wunderground v.1.15,2017-05-23 04:08:00,
2017-05-23 00:14:00,46.4,30.2,30.09,SSW,202,1.0,2.0,53,0.00,,,0.00,Wunderground v.1.15,2017-05-23 04:14:00,
2017-05-23 00:20:00,46.4,30.2,30.09,SSW,207,1.0,3.0,53,0.00,,,0.00,Wunderground v.1.15,2017-05-23 04:20:00,
2017-05-23 00:26:00,46.4,30.2,30.09,SSW,207,0.0,3.0,53,0.00,,,0.00,Wunderground v.1.15,2017-05-23 04:26:00,
2017-05-23 00:32:00,46.3,30.1,30.08,SSW,211,0.0,0.0,53,0.00,,,0.00,Wunderground v.1.15,2017-05-23 04:32:00,
2017-05-23 00:38:00,46.3,30.1,30.08,SSW,211,0.0,0.0,53,0.00,,,0.00,Wunderground v.1.15,2017-05-23 04:38:00,
2017-05-23 00:44:00,46.3,29.6,30.08,SSW,211,0.0,0.0,52,0.00,,,0.00,Wunderground v.1.15,2017-05-23 04:44:00,
2017-05-23 00:50:00,46.3,29.6,30.08,SSW,211,0.0,0.0,52,0.00,,,0.00,Wunderground v.1.15,2017-05-23 04:50:00,
2017-05-23 00:56:00,46.3,29.6,30.07,SSW,210,0.0,0.0,52,0.00,,,0.00,Wunderground v.1.15,2017-05-23 04:56:00,
2017-05-23 01:02:00,46.4,29.7,30.07,SSW,210,0.0,1.0,52,0.00,,,0.00,Wunderground v.1.15,2017-05-23 05:02:00,
2017-05-23 01:08:00,46.4,29.7,30.07,SSW,210,0.0,1.0,52,0.00,,,0.00,Wunderground v.1.15,2017-05-23 05:08:00,
2017-05-23 01:14:00,46.4,29.7,30.07,SSW,210,0.0,0.0,52,0.00,,,0.00,Wunderground v.1.15,2017-05-23 05:14:00,
2017-05-23 01:20:00,46.4,29.7,30.07,SSW,210,0.0,0.0,52,0.00,,,0.00,Wunderground v.1.15,2017-05-23 05:20:00,
2017-05-23 01:26:00,46.4,29.7,30.07,SSW,210,0.0,0.0,52,0.00,,,0.00,Wunderground v.1.15,2017-05-23 05:26:00,
2017-05-23 01:32:00,46.5,29.8,30.07,SSW,210,0.0,0.0,52,0.00,,,0.00,Wunderground v.1.15,2017-05-23 05:32:00,
2017-05-23 01:38:00,46.5,29.8,30.07,SSW,210,0.0,0.0,52,0.00,,,0.00,Wunderground v.1.15,2017-05-23 05:38:00,
2017-05-23 01:44:00,46.5,29.8,30.07,SSW,210,0.0,0.0,52,0.00,,,0.00,Wunderground v.1.15,2017-05-23 05:44:00,
2017-05-23 01:50:00,46.5,29.8,30.07,SSW,211,0.0,0.0,52,0.00,,,0.00,Wunderground v.1.15,2017-05-23 05:50:00,
2017-05-23 01:56:00,46.5,29.8,30.07,SSW,210,0.0,0.0,52,0.00,,,0.00,Wunderground v.1.15,2017-05-23 05:56:00,
2017-05-23 02:02:00,46.5,29.8,30.07,SSW,210,0.0,0.0,52,0.00,,,0.00,Wunderground v.1.15,2017-05-23 06:02:00,
2017-05-23 02:08:00,46.5,29.8,30.07,SSW,210,0.0,0.0,52,0.00,,,0.00,Wunderground v.1.15,2017-05-23 06:08:00,
2017-05-23 02:14:00,46.5,29.3,30.07,SSW,211,0.0,0.0,51,0.00,,,0.00,Wunderground v.1.15,2017-05-23 06:14:00,
2017-05-23 02:20:00,46.6,29.4,30.07,SSW,204,0.0,0.0,51,0.00,,,0.00,Wunderground v.1.15,2017-05-23 06:20:00,
2017-05-23 02:26:00,46.6,29.4,30.06,SSW,204,0.0,0.0,51,0.00,,,0.00,Wunderground v.1.15,2017-05-23 06:26:00,
2017-05-23 02:32:00,46.6,29.4,30.06,SSW,204,0.0,1.0,51,0.00,,,0.00,Wunderground v.1.15,2017-05-23 06:32:00,
2017-05-23 02:38:00,46.6,29.4,30.06,SSW,196,0.0,1.0,51,0.00,,,0.00,Wunderground v.1.15,2017-05-23 06:38:00,
2017-05-23 02:44:00,46.6,29.4,30.06,SSW,196,0.0,1.0,51,0.00,,,0.00,Wunderground v.1.15,2017-05-23 06:44:00,
2017-05-23 02:50:00,46.6,29.4,30.05,SSW,196,0.0,0.0,51,0.00,,,0.00,Wunderground v.1.15,2017-05-23 06:50:00,
2017-05-23 02:56:00,46.6,29.4,30.05,SSW,197,0.0,2.0,51,0.00,,,0.00,Wunderground v.1.15,2017-05-23 06:56:00,
2017-05-23 03:02:00,46.6,29.9,30.05,SSW,196,0.0,0.0,52,0.00,,,0.00,Wunderground v.1.15,2017-05-23 07:02:00,
2017-05-23 03:08:00,46.4,30.2,30.05,SSW,196,0.0,0.0,53,0.00,,,0.00,Wunderground v.1.15,2017-05-23 07:08:00,
2017-05-23 03:14:00,46.3,30.1,30.05,SSW,196,0.0,0.0,53,0.00,,,0.00,Wunderground v.1.15,2017-05-23 07:14:00,
2017-05-23 03:20:00,46.4,29.7,30.05,SSW,196,0.0,0.0,52,0.00,,,0.00,Wunderground v.1.15,2017-05-23 07:20:00,
2017-05-23 03:26:00,46.4,29.7,30.05,SSW,196,0.0,2.0,52,0.00,,,0.00,Wunderground v.1.15,2017-05-23 07:26:00,
2017-05-23 03:32:00,46.4,29.2,30.05,SSW,196,0.0,0.0,51,0.00,,,0.00,Wunderground v.1.15,2017-05-23 07:32:00,
2017-05-23 03:38:00,46.5,29.3,30.05,SSW,196,0.0,0.0,51,0.00,,,0.00,Wunderground v.1.15,2017-05-23 07:38:00,
2017-05-23 03:44:00,46.6,29.4,30.05,SSW,196,0.0,3.0,51,0.00,,,0.00,Wunderground v.1.15,2017-05-23 07:44:00,
2017-05-23 03:50:00,46.6,29.4,30.04,SSW,196,0.0,0.0,51,0.00,,,0.00,Wunderground v.1.15,2017-05-23 07:50:00,
2017-05-23 03:56:00,46.6,29.4,30.04,SSW,196,0.0,0.0,51,0.00,,,0.00,Wunderground v.1.15,2017-05-23 07:56:00,
2017-05-23 04:02:00,46.7,29.5,30.04,West,264,0.0,0.0,51,0.00,,,0.00,Wunderground v.1.15,2017-05-23 08:02:00,
2017-05-23 04:08:00,46.7,29.5,30.04,West,264,0.0,0.0,51,0.00,,,0.00,Wunderground v.1.15,2017-05-23 08:08:00,
2017-05-23 04:14:00,46.7,29.5,30.04,West,264,0.0,0.0,51,0.00,,,0.00,Wunderground v.1.15,2017-05-23 08:14:00,
2017-05-23 04:20:00,46.7,29.0,30.04,West,264,0.0,0.0,50,0.00,,,0.00,Wunderground v.1.15,2017-05-23 08:20:00,
2017-05-23 04:26:00,46.7,29.0,30.04,West,264,0.0,0.0,50,0.00,,,0.00,Wunderground v.1.15,2017-05-23 08:26:00,
2017-05-23 04:32:00,46.7,29.5,30.04,West,264,0.0,0.0,51,0.00,,,0.00,Wunderground v.1.15,2017-05-23 08:32:00,
2017-05-23 04:38:00,46.7,29.0,30.04,West,264,0.0,0.0,50,0.00,,,0.00,Wunderground v.1.15,2017-05-23 08:38:00,
2017-05-23 04:44:00,46.7,29.0,30.05,West,264,0.0,0.0,50,0.00,,,0.00,Wunderground v.1.15,2017-05-23 08:44:00,
2017-05-23 04:50:00,46.7,29.0,30.05,West,264,0.0,0.0,50,0.00,,,0.00,Wunderground v.1.15,2017-05-23 08:50:00,
2017-05-23 04:56:00,46.7,29.0,30.04,West,262,0.0,2.0,50,0.00,,,0.00,Wunderground v.1.15,2017-05-23 08:56:00,
2017-05-23 05:02:00,46.7,29.0,30.04,West,261,0.0,1.0,50,0.00,,,0.00,Wunderground v.1.15,2017-05-23 09:02:00,
2017-05-23 05:08:00,46.7,29.0,30.04,West,261,0.0,1.0,50,0.00,,,0.00,Wunderground v.1.15,2017-05-23 09:08:00,
2017-05-23 05:14:00,46.7,29.0,30.05,West,261,0.0,0.0,50,0.00,,,0.00,Wunderground v.1.15,2017-05-23 09:14:00,
2017-05-23 05:20:00,46.8,29.1,30.04,West,261,0.0,0.0,50,0.00,,,0.00,Wunderground v.1.15,2017-05-23 09:20:00,
2017-05-23 05:26:00,46.8,29.1,30.04,West,261,0.0,0.0,50,0.00,,,0.00,Wunderground v.1.15,2017-05-23 09:26:00,
2017-05-23 05:32:00,46.7,29.0,30.04,West,261,0.0,0.0,50,0.00,,,0.00,Wunderground v.1.15,2017-05-23 09:32:00,
2017-05-23 05:38:00,46.7,29.0,30.04,West,261,0.0,0.0,50,0.00,,,0.00,Wunderground v.1.15,2017-05-23 09:38:00,
2017-05-23 05:44:00,46.7,29.0,30.04,West,261,0.0,2.0,50,0.00,,,0.00,Wunderground v.1.15,2017-05-23 09:44:00,
2017-05-23 05:50:00,46.7,29.0,30.05,West,261,0.0,0.0,50,0.00,,,0.00,Wunderground v.1.15,2017-05-23 09:50:00,
2017-05-23 05:56:00,46.7,29.0,30.05,NW,306,0.0,2.0,50,0.00,,,0.00,Wunderground v.1.15,2017-05-23 09:56:00,
2017-05-23 06:02:00,46.6,28.9,30.05,NW,306,1.0,2.0,50,0.00,,,0.00,Wunderground v.1.15,2017-05-23 10:02:00,
2017-05-23 06:08:00,46.5,28.8,30.05,NW,307,1.0,2.0,50,0.00,,,0.00,Wunderground v.1.15,2017-05-23 10:08:00,
2017-05-23 06:14:00,46.5,28.8,30.05,NW,307,0.0,1.0,50,0.00,,,0.00,Wunderground v.1.15,2017-05-23 10:14:00,
2017-05-23 06:20:00,46.6,28.9,30.05,NW,307,0.0,0.0,50,0.00,,,0.00,Wunderground v.1.15,2017-05-23 10:20:00,
2017-05-23 06:26:00,46.7,29.0,30.05,NW,307,0.0,0.0,50,0.00,,,0.00,Wunderground v.1.15,2017-05-23 10:26:00,
2017-05-23 06:32:00,46.7,29.0,30.05,NW,307,0.0,0.0,50,0.00,,,0.00,Wunderground v.1.15,2017-05-23 10:32:00,
2017-05-23 06:38:00,46.8,28.6,30.05,NW,307,0.0,0.0,49,0.00,,,0.00,Wunderground v.1.15,2017-05-23 10:38:00,
2017-05-23 06:44:00,47.0,28.8,30.04,NW,307,0.0,0.0,49,0.00,,,0.00,Wunderground v.1.15,2017-05-23 10:44:00,
2017-05-23 06:50:00,47.6,29.4,30.04,NNW,336,1.0,2.0,49,0.00,,,0.00,Wunderground v.1.15,2017-05-23 10:50:00,
2017-05-23 06:56:00,47.6,29.4,30.05,NNW,336,1.0,2.0,49,0.00,,,0.00,Wunderground v.1.15,2017-05-23 10:56:00,
2017-05-23 07:02:00,47.2,29.5,30.05,NNW,346,2.0,2.0,50,0.00,,,0.00,Wunderground v.1.15,2017-05-23 11:02:00,
2017-05-23 07:08:00,47.1,29.4,30.05,North,360,2.0,3.0,50,0.00,,,0.00,Wunderground v.1.15,2017-05-23 11:08:00,
2017-05-23 07:14:00,47.2,29.5,30.06,NNE,30,1.0,2.0,50,0.00,,,0.00,Wunderground v.1.15,2017-05-23 11:14:00,
2017-05-23 07:20:00,47.3,29.1,30.05,NNE,31,0.0,0.0,49,0.00,,,0.00,Wunderground v.1.15,2017-05-23 11:20:00,
2017-05-23 07:26:00,47.5,29.3,30.06,NE,34,0.0,1.0,49,0.00,,,0.00,Wunderground v.1.15,2017-05-23 11:26:00,